Погода в Исилькуле

Погода в Исилькуле : погода сейчас, прогноз погоды и архив. Всё, что Вы хотите узнать о погоде в Исилькуле!

Хотите узнать прогноз погоды в Исилькуле? Тогда Вам сюда: Погода в Исилькуле

Поиск расширенной информации на нашем сайте:

Другие новости

Новости СМИ2

Главная страница сайта

Новости сайта

03.07.2017

Напоминаем, что на нашем специализированном сайте Метеоцентр.Азия вы можете получить высокодетализированные автоматические прогнозы погоды по пунктам России, СНГ и мира в авиационном формате (включающие направление и скорость ветра, видимость, явления погоды, количество и форму облачности, нижнюю и верхнюю границу облачности).

Рекомендуем: Деньги в долг срочно дам деньги в долг.

Погода в Исилькуле - сегодня

Время (UTC), дата Ветер
(°,м/с) 
Видим.   Явления Облачность Т
(°С)
Тd
(°С)
f(%) Тe
(°С)
Pmin
(гПа)
dP
(гПа)
Po
(мм)
O2
(г/м3)
Тmin Tmax R s Состояние
почвы
03 11.10.18 210 (ЮЗ) 4{10}  20000 м    10/3 600 м средняя 
[Sc|As op]
+7.7 +2.2 68 +6  1011  -3.3  747  292  +1.2        сухая 
15 11.10.18 270 (З) 5{16}  10 км    10/6 600 м средняя 
[Sc|As op]
+11.2 +1.8 52 +10  1001.6  -0.7  740  286    +15.3       
03 12.10.18 260 (З) 20000 м    8/8 600 м кучево-дожд. 
[Cb calv]
+3.8 +1.7 86 +1  1000.1  0.8  739  293  +3.6    0.0    сухая 
09 12.10.18 300 (СЗ) 20000 м  в посл. час ливневой дождь  9/4 600 м кучево-дожд., средняя 
[Cb calv|As op]
+4.4 +2 84 +3  1001.5  740  293           
15 12.10.18 310 (СЗ) 10 км    10/3 600 м средняя 
[Sc|As op]
+2.2 +0.1 86 1003.9  0.9  741  296    +5.3  0.5     
21 12.10.18 340 (С) 10 км    8/4 600 м средняя 
[Sc|Ac trans]
-0.7 -2.1 90 -2  1004  0.2  741  300           
03 13.10.18 330 (СЗ) 20000 м    8/0 средняя 
[Ac trans]
-1.5 -3.3 88 -2  1005  0.8  742  301  -2.9        замёрзшая 
09 13.10.18 300 (СЗ) 20000 м    8/4 600 м средняя 
[Sc|Ac trans]
+4.8 -8 39 +3  1004.9  0.1  742  295           
15 13.10.18 250 (З) 10 км    8/0 средняя 
[Ac trans]
-0.5 -3.9 78 -1  1007.7  744  301    +4.8       
21 13.10.18 220 (ЮЗ) 10 км    ясно 
-3 -4 93 -4  1009.3  0.8  745  304           
03 14.10.18 220 (ЮЗ) 20000 м    10/3 600 м кучево-дожд., средняя 
[Cb calv|Ac As]
-2.5 -3.4 94 -4  1010.9  0.9  746  304  -3.5        сухая 
09 14.10.18 230 (ЮЗ) 20000 м  в посл. час ливневой снег  8/6 600 м кучево-дожд., средняя, верхняя 
[Cb calv|Ac trans|Ci sp]
+2 -0.6 83 +1  1012.6  0.8  748  299           
15 14.10.18 170 (Ю) 10 км    8/3 600 м кучево-дожд., средняя 
[Cb calv|Ac trans]
-0 -1.5 90 -1  1014.6  0.9  749  302    +2     
21 14.10.18 180 (Ю) 10 км    10/0 средняя 
[As op]
-1.4 -1.9 96 -1  1015.8  0.6  750  304           
03 15.10.18 110 (В) 0500 м  туман  ?/?  
-2 -2.3 98 -3  1017.7  1.3  751  305  -2.5        замёрзшая 
09 15.10.18 150 (ЮВ) 20000 м    9/8 600 м кучево-дожд., средняя 
[Cb calv|Ac trans]
+1.5 -1.6 80 +1  1018.3  0.3  752  302           
15 15.10.18 030 (СВ) 10 км    8/0 средняя 
[Ac trans]
+0.2 -1.6 88 -1  1019.7  0.5  753  303    +2.8  0.3     
21 15.10.18 040 (СВ) 10 км    ясно 
-2.3 -3.6 91 -3  1019.3  -0.6  753  306           
09 16.10.18 030 (СВ) 20000 м    1/1 600 м 
[Cu hum]
+5.6 -3.7 51 +4  1020.1  -0.3  753  298           
21 16.10.18 270 (З) 10 км  в посл. час туман  10/3 600 м средняя 
[Sc|As op]
-2.7 -3.1 97 -5  1021.1  -0.8  754  307           
15 17.10.18 210 (ЮЗ) 5-11{12}  4000 м  слаб. ливневой дождь  10/10 600 м кучево-дожд. 
[Cb calv]
+1.1 -0.4 90 -2  1005.4  -3.3  742  298    +2.2  0.0     
03 18.10.18 270 (З) 3{10}  4000 м  слаб. ливневой дождь  10/10 600 м кучево-дожд. 
[Cb calv]
+1.7 +1 95 994.9  0.2  735  294  +0.8       
09 18.10.18 250 (З) 20000 м    9/6 600 м кучево-дожд., средняя, верхняя 
[Cb calv|Ac trans|Ci fib]
+3.6 -0.6 74 +2  996  0.5  736  293           
15 18.10.18 260 (З) 10 км  {ливн. осадки}  10/8 600 м кучево-дожд., средняя 
[Cb calv|As op]
+0.8 +0 94 998.7  1.1  737  296    +3.7  0.4     
21 18.10.18 050 (СВ) 10 км  {ливн. осадки}  10/6 600 м кучево-дожд., средняя 
[Cb calv|As op]
+0.7 +0.2 96 1001.4  1.8  740  297           
Время (UTC), дата Ветер
(°,м/с) 
Видим.   Явления Облачность Т
(°С)
Тd
(°С)
f(%) Тe
(°С)
Pmin
(гПа)
dP
(гПа)
Po
(мм)
O2
(г/м3)
Тmin Tmax R s Состояние
почвы

Для получения пояснительной информации подведите курсор к названию столбца.

ПОГОДА в Исилькуле - архив

Всё, что Вы хотите узнать о погоде в Исилькуле - удобно и подробно!

Выберите нужную дату (начиная с 1 января 2015* года) и нажмите кнопку "Найти".
Будут отображены архивные сводки погоды по пункту Исилькуль, начиная с указанной даты.


Отображать данные в формате CSV (для использования в таблицах Excel)


Внимание! Наш архив погоды предназначен исключительно для личного некоммерческого использования в познавательных целях. Если Вам необходимы официальные справки о состоянии погоды (для производственных, юридических, коммерческих и т.п. целей), обращайтесь в органы Росгидромета.

*Примечание: данная дата относится к архиву по метеостанциям СССР (Россия, СНГ, Балтия).
Архив по метеостанциям Зарубежной Европы и Азии (кроме Китая) хранится 10 дней, по другим регионам земного шара (Китай, Африка, Америка, Австралия, Океания) - 1 день.

Исилькуль - район местоположения метеостанции


Название, широта, долгота, высота метеостанции:
Исилькуль 54.9°ш. 71.2°д. 125 м над ур. моря [Российская Федерация]

Дополнительная информация

В oтличие oт бoльшинства пoгoдных сайтoв мы публикуем пoдрoбную метеoинфoрмацию в детальнoм прoфессиoнальнoм фoрмате.

Характеристики температуры и влажнoсти вoздуха измеряются на высoте 2 м в тени вдали oт зданий и деревьев.
Скoрoсть ветра измеряется на высoте 10 м (на урoвне рoста челoвека скoрoсть ветра ниже в 1.5-2 раза). Если метеoстанция нахoдится в гoрoде или в лесу, тo скoрoсть ветра занижена на 2-4 м/с пo сравнению с oткрытым местoм. Скoрoсть ветра над акватoриями крупных рек и oзёр, а также на вершинах хoлмoв на 2-5 м/с выше, чем в oбычных услoвиях.
Атмoсфернoе давление в разных тoчках местнoсти мoжет значительнo oтличаться oт давления на метеoстанции, в зависимoсти oт услoвий рельефа (при пoдъёме на 10 м давление пoнижается примернo на 1 мм рт.ст.).